Location: Buckeye Ditch
(40.9104°N, 122.9517°W)
Time: 15:12:06
(UTC+00:00)

IRS-1D - Pass Details

Date: 13 April 2024
Orbit: 739 x 813 km, 98.8° (Epoch: 22 May)

Event Time Altitude Azimuth Distance (km) Brightness Sun altitude
Rises 12:28:37 0° 6° (N) 3,226 7.2 -12.7°
Reaches altitude 10° 12:30:59 10° 0° (N) 2,307 6.3 -12.3°
Maximum altitude 12:35:47 44° 290° (WNW) 1,070 3.9 -11.4°
Drops below altitude 10° 12:40:38 10° 220° (SW) 2,338 5.5 -10.6°
Enters shadow 12:40:41 10° 219° (SW) 2,353 5.5 -10.6°
